TimeCAT,TemperatureF,Dew PointF,Humidity,Sea Level PressureIn,VisibilityMPH,Wind Direction,Wind SpeedMPH,Gust SpeedMPH,PrecipitationIn,Events,Conditions,WindDirDegrees,DateUTC
12:00 AM,69.8,62.6,78,30.01,-9999.0,SSE,3.5,-,N/A,,Clear,150,2013-01-30 22:00:00
1:00 AM,68.0,64.4,88,29.98,-9999.0,Variable,2.3,-,N/A,,Clear,0,2013-01-30 23:00:00
2:00 AM,68.0,62.6,83,29.98,-9999.0,Variable,2.3,-,N/A,,Clear,0,2013-01-31 00:00:00
3:00 AM,66.2,60.8,83,29.98,-9999.0,Variable,2.3,-,N/A,,Clear,0,2013-01-31 01:00:00
4:00 AM,64.4,59.0,83,29.98,-9999.0,Variable,1.2,-,N/A,,Clear,0,2013-01-31 02:00:00
5:00 AM,64.4,59.0,83,29.98,-9999.0,Variable,2.3,-,N/A,,Clear,0,2013-01-31 03:00:00
6:00 AM,62.6,59.0,88,29.98,-9999.0,Variable,2.3,-,N/A,,Clear,0,2013-01-31 04:00:00
7:00 AM,66.2,60.8,83,29.98,-9999.0,NNE,5.8,-,N/A,,Clear,20,2013-01-31 05:00:00
8:00 AM,73,62,60,,6,NE,5.8,,,,,40,2013-01-31 06:00:00
8:00 AM,73.4,62.6,69,30.01,-9999.0,NE,5.8,-,N/A,,Clear,40,2013-01-31 06:00:00
9:00 AM,78.8,50.0,36,30.01,-9999.0,East,5.8,-,N/A,,Clear,90,2013-01-31 07:00:00
10:00 AM,82.4,60.8,48,30.01,-9999.0,ENE,6.9,-,N/A,,Clear,70,2013-01-31 08:00:00
11:00 AM,86.0,60.8,43,30.01,-9999.0,SE,13.8,-,N/A,,Clear,130,2013-01-31 09:00:00
12:00 PM,87.8,60.8,40,29.98,-9999.0,East,10.4,-,N/A,,Clear,80,2013-01-31 10:00:00
1:00 PM,87.8,59.0,38,29.95,-9999.0,East,5.8,-,N/A,,Clear,90,2013-01-31 11:00:00
2:00 PM,90,59,25,,6,ESE,5.8,,,,Scattered Clouds,110,2013-01-31 12:00:00
2:00 PM,89.6,57.2,33,29.95,6.2,ESE,5.8,-,N/A,,Partly Cloudy,110,2013-01-31 12:00:00
3:00 PM,89.6,57.2,33,29.92,6.2,SSE,3.5,-,N/A,,Partly Cloudy,160,2013-01-31 13:00:00
4:00 PM,91.4,55.4,29,29.92,6.2,East,12.7,-,N/A,,Partly Cloudy,90,2013-01-31 14:00:00
5:00 PM,89.6,57.2,33,29.92,6.2,SSE,6.9,-,N/A,,Scattered Clouds,150,2013-01-31 15:00:00
6:00 PM,87.8,59.0,38,29.92,6.2,SE,6.9,-,N/A,,Partly Cloudy,130,2013-01-31 16:00:00
7:00 PM,86.0,59.0,40,29.92,6.2,SE,6.9,-,N/A,,Partly Cloudy,130,2013-01-31 17:00:00
8:00 PM,82.4,62.6,51,29.95,-9999.0,SE,5.8,-,N/A,,Clear,130,2013-01-31 18:00:00